Other Public Products
Issued by NWS Grand Forks, ND

Home | Current Version | Previous Version | Graphics & Text | Print | Product List | Glossary On
Versions: 1 2 3 4 5 6 7 8 9 10 11 12 13 14 15 16 17 18 19 20 21 22 23 24 25 26 27 28 29 30 31 32 33 34 35 36 37 38 39 40 41 42 43 44 45 46 47 48 49 50
000
FPUS83 KFGF 240410
OPUFGF
PRAIRIE TO PINES WEATHER ROUNDUP
NATIONAL WEATHER SERVICE EASTERN NORTH DAKOTA/GRAND FORKS ND
1100 PM CDT WED MAY 23 2018

 **SATELLITE DATA USED TO AUGMENT SKY COVER AT AUTOMATED STATIONS**
 *****  WEATHER ACROSS EASTERN NORTH DAKOTA  *****

CITY           SKY/WX    TMP DP  RH WIND       PRES   REMARKS
GRAND FORKS    MOCLDY    74  61  63 SE13      29.92F
GRND FORKS AFB MOCLDY    73  60  63 SE12      29.92F
GRND FORKS NWS   N/A     75  60  60 SE10      29.90F
BUXTON           N/A     73  64  73 SE12        N/A
DEVILS LAKE    FAIR      69  62  78 SE15      29.90F
FARGO          FAIR      72  61  68 SE13      29.93S
WAHPETON ARPT  FAIR      70  59  68 SE13G21   29.94F
$$

 *****  WEATHER ACROSS CENTRAL AND WESTERN NORTH DAKOTA  *****

CITY           SKY/WX    TMP DP  RH WIND       PRES   REMARKS
JAMESTOWN      FAIR      70  63  78 SE15      29.88F
BISMARCK       FAIR      66  63  90 SE6       29.84R
MINOT          FAIR      72  64  76 SE8       29.82R
MINOT AFB      FAIR      71  63  76 SE7       29.81R
GARRISON         N/A     67  63  87 SE3       29.83R
WILLISTON      FAIR      65  59  81 NE5       29.79S
DICKINSON      FAIR      69  60  73 S12       29.83R
HETTINGER      FAIR      66  62  87 S7        29.87R
$$

 *****  OTHER OBSERVATIONS NORTHEAST NORTH DAKOTA  *****

CITY           SKY/WX    TMP DP  RH WIND       PRES   REMARKS
WALHALLA       FAIR      72  63  73 SE7       29.91S
LANGDON        MOCLDY    70  61  73 SE9       29.93F
CAVALIER         N/A     75  61  60 SE8       29.91S
GRAFTON        FAIR      72  59  64 SE9       29.94S
CANDO          FAIR      68  61  77 SE14      29.90F
FORT TOTTEN      N/A     70  64  80 SE8       29.95S
ROLLA          FAIR      68  59  73 SE9G18    29.91R
RUGBY          NOT AVBL
 ***** THE ABOVE OBSERVATIONS ARE NON NWS ARE NOT QUALITY
        CONTROLLED AND MAY MIS-REPORT RAIN FOR SNOW...
$$

 *****  OTHER OBSERVATIONS SOUTHEAST NORTH DAKOTA *****

CITY           SKY/WX    TMP DP  RH WIND       PRES   REMARKS
COOPERSTOWN    FAIR      72  63  73 SE12      29.92S
VALLEY CITY    MOCLDY    70  70 100 SE14G21   29.92F
OAKES            N/A     70  68  94 SE15      29.90F
GWINNER          N/A     70  64  83 SE20G25   29.91S
SHEYENNE NWR     N/A     69  62  79 SE13      29.95S
BUFFALO          N/A     71  60  67 W14         N/A
WYNDMERE       NOT AVBL
 ***** THE ABOVE OBSERVATIONS ARE NON NWS ARE NOT QUALITY
       CONTROLLED AND MAY MIS-REPORT RAIN FOR SNOW...
$$

  *****  WEATHER ACROSS NORTHERN MINNESOTA  *****

CITY           SKY/WX    TMP DP  RH WIND       PRES   REMARKS
FLAG ISLAND    FAIR      68  61  77 S3        29.98S
WARROAD        FAIR      68  61  77 SE5       29.99S
ROSEAU         FAIR      72  61  68 SE8       29.97F
HALLOCK        MOCLDY    73  59  60 SE9       29.93S
THF RVR FALLS  MOCLDY    71  59  65 SE9       29.98S
HALSTAD          N/A     70  59  68 SE12        N/A
FOSSTON        FAIR      70  57  64 SE9       29.99F
BAUDETTE       FAIR      64  58  80 E5        30.00S
WASKISH          N/A     72  61  68 S5        30.01F
CROOKSTON      FAIR      72  59  64 SE9       29.95F
$$
  *****  WEATHER ACROSS CENTRAL AND WEST MINNESOTA  *****

CITY           SKY/WX    TMP DP  RH WIND       PRES   REMARKS
BEMIDJI        FAIR      66  60  78 SE6       30.02F
PARK RAPIDS    FAIR      69  60  73 SE9       30.03S
WADENA         FAIR      64  61  88 SE6       30.03S
DETROIT LAKES  FAIR      68  59  73 SE12      30.01S
MOORHEAD       FAIR      70  61  73 SE9       29.94S
FERGUS FALLS   FAIR      70  61  73 SE17      29.92F
ELBOW LAKE     FAIR      68  62  83 SE14      29.98F
MORRIS MN      FAIR      68  64  88 E14       29.97F
STAPLES        FAIR      64  59  82 E3        30.03F
WHEATON        FAIR      70  63  78 SE15      29.95F
$$
  *****  WEATHER ELSEWHERE ACROSS MINNESOTA  *****

CITY           SKY/WX    TMP DP  RH WIND       PRES   REMARKS
DULUTH         FAIR      65  54  67 E3        30.10S
INTRNTL FALLS  FAIR      64  56  75 CALM      30.02S
ELY            FAIR      66  54  63 S7        30.09R
CLOQUET        FAIR      63  52  67 E3        30.09F
BRAINERD       FAIR      69  58  67 E3        30.05F
HIBBING        FAIR      63  56  78 SE6       30.08S
ALEXANDRIA     MOCLDY    70  60  70 SE12      30.03S
SAINT CLOUD    LGT RAIN  70  61  73 E9        30.04S
MINNEAPOLIS    FAIR      75  65  70 SE13      30.07R
$$

  *****  WEATHER ACROSS SOUTH DAKOTA  *****

CITY           SKY/WX    TMP DP  RH WIND       PRES   REMARKS
SIOUX FALLS    MOCLDY    74  62  66 S9        29.97R
BROOKINGS      FAIR      73  61  65 SE10      29.97R
WATERTOWN      FAIR      73  68  84 SE7       29.94F
HURON          FAIR      73  62  68 SE9       29.90R
SISSETON         N/A     67  64  90 SE8       29.93F
ABERDEEN       FAIR      73  62  68 SE9       29.89R
MITCHELL       FAIR      73  62  68 SE8       29.90S
PIERRE         FAIR      74  64  71 S14       29.84R
MOBRIDGE       FAIR      70  64  81 E3        29.83R
RAPID CITY     FAIR      67  46  47 S30G38    29.89F
$$

  *****  SOME WEATHER IN NEARBY STATES *****

CITY           SKY/WX    TMP DP  RH WIND       PRES   REMARKS
GLASGOW MT     FAIR      62  57  83 NE7       29.78S
GREAT FALLS MT FAIR      58  49  72 S6        29.87R
CHEYENNE WY    FAIR      58  42  55 CALM      30.07R
SCOTTSBLUFF NE FAIR      59  50  72 N7        29.95R
OMAHA NE       FAIR      79  62  56 SE10      30.02R
DES MOINES IA  FAIR      76  64  66 SE9       30.07S
DAVENPORT IA   FAIR      69  59  70 E8        30.16S
CHICAGO IL     FAIR      63  50  62 E5        30.18S
EAU CLAIRE WI  FAIR      71  62  73 SE8       30.11S
LA CROSSE WI   FAIR      69  63  81 E3        30.12R
$$

  *****  SOME NATIONAL WEATHER *****

CITY           SKY/WX    TMP DP  RH WIND       PRES   REMARKS
LA GUARDIA NY  FAIR      72  51  47 NW7       30.00R
RALEIGH NC     MOCLDY    71  70  96 CALM      30.07R
ATLANTA GA     MOCLDY    73  69  87 SE3       30.10R
NEW ORLEANS LA FAIR      81  74  79 SE8       30.06S
OKLAHOMA CITY  FAIR      74  68  81 SE7       30.07R
ALBUQUERQUE NM FAIR      71  17  12 SE9       30.04R
SALT LAKE CITY FAIR      62  49  62 SW5       29.99R
LOS ANGELES CA FAIR      60  53  77 W8        29.99R
BOISE ID       CLOUDY    64  57  78 SW6       29.89R
SEATTLE WA     FAIR      66  52  60 SW9       29.84R
$$

*** WEATHER ACROSS MANITOBA...SASKATCHEWAN AND ONTARIO ***
                ***ONTARIO***

CITY           SKY/WX    TMP DP  RH WIND       PRES   REMARKS
GERALDTON      PTCLDY    61  43  51 SW3       30.04F
THUNDER BAY    CLEAR     46  39  76 E5        30.09S
SIOUX LOOKOUT  MOCLDY    55  45  67 SE2       30.03S
TORONTO        CLEAR     63  45  51 NW6       30.13S
BIG TROUT LK   CLEAR     52  37  58 SW7       29.90F
PICKLE LAKE    NOT AVBL
DRYDEN         CLEAR     72  50  46 S5        30.03R
KENORA         PTCLDY    72  52  49 SE6       30.01S
$$
                *** MANITOBA***

CITY           SKY/WX    TMP DP  RH WIND       PRES   REMARKS
BRANDON        MOCLDY    68  59  73 E7        29.87S
DAUPHIN        CLOUDY    68  59  73 VRB2      29.87S
ISLAND LAKE    CLEAR     64  46  52 CALM      29.90S
PILOT MOUND      N/A     70  57  64 SE13        N/A
THE PAS        CLEAR     68  52  56 SE7       29.85S
THOMPSON       PTCLDY    63  43  48 S2        29.83S
WINNIPEG       PTCLDY    73  57  56 SE10      29.92S
LYNN LAKE      CLEAR     72  43  35 SW7       29.80R
CHURCHILL      MOCLDY    43  37  81 E9        29.73F
GILLAM         MOCLDY    70  43  37 SW10      29.79S
$$
                ***SASKATCHEWAN***

CITY           SKY/WX    TMP DP  RH WIND       PRES   REMARKS
ESTEVAN        PTCLDY    61  59  94 E8        29.81F
KINDERSLEY     MOCLDY    70  50  49 SE14      29.80R
LLOYDMINSTER   PTCLDY    66  39  37 E3        29.79S
PRINCE ALBERT  MOCLDY    73  54  49 SW16G22   29.84R
REGINA         MOCLDY    64  61  88 NE3       29.86S
YORKTON        CLOUDY    64  61  88 E3        29.87F



USA.gov is the U.S. government's official web portal to all federal, state and local government web resources and services.